ORLYDB

World´s safest download option! Anonymous Downloads & Identity Protection!
2014-12-25 03:43:28 XBOX360 Microsoft.XBOX360.Development.Collection.MERRY.XMAS-MATTRiCK DL 180428.8MB | 257F
2014-12-20 14:48:22 XBOX360 Sakura_Flamingo_Archives_JPN_XBOX360-HR DL 4812.8MB | 47F
2014-12-16 18:03:20 XBOX360 Rabbids.Invasion.The.Interactive.TV.Show.Pack.02.Season.01.DLC.XBOX360-LiGHTFORCE DL 900.0MB | 9F
2014-12-16 18:03:17 XBOX360 Rabbids.Invasion.The.Interactive.TV.Show.Pack.01.Season.01.DLC.XBOX360-LiGHTFORCE DL 744.7MB | 8F
2014-12-14 21:02:10 XBOX360 JUJU.XBLA.XBOX360-LiGHTFORCE DL 1945.6MB | 19F
2014-12-14 20:38:59 XBOX360 Battle.Academy.XBLA.XBOX360-LiGHTFORCE DL 300.0MB | 3F
2014-12-04 01:37:49 XBOX360 Game.Of.Thrones.Ep1.Iron.From.Ice.XBLA.XBOX360-LiGHTFORCE DL 1122.2MB | 12F
2014-12-04 01:37:40 XBOX360 Syberia.XBLA.XBOX360-LiGHTFORCE DL 1384.3MB | 15F
2014-12-01 22:46:41 XBOX360 Toybox.Turbos.XBLA.XBOX360-LiGHTFORCE DL 300.0MB | 3F
2014-11-30 20:18:43 XBOX360 Tales.From.The.Borderlands.Ep1.XBLA.XBOX360-LiGHTFORCE DL
2014-11-30 20:18:25 XBOX360 Geometry.Wars.3.Dimensions.Inc.Blood.Count.DLC.XBLA.XBOX360-LiGHTFORCE DL
2014-11-29 19:15:59 XBOX360 The.Crew.XBOX360-COMPLEX DL
2014-11-29 15:30:30 XBOX360 Motorcycle.Club.PAL.XBOX360-COMPLEX DL 10854.4MB | 74F
2014-11-22 02:05:15 XBOX360 MXGP_USA_XBOX360-PROTOCOL DL 7680.0MB | 75F
2014-11-21 16:38:58 XBOX360 Rugby_15_REPACK_PAL_XBOX360-STRANGE DL 15872.0MB | 70F
2014-11-21 13:12:58 XBOX360 Rugby_15_PAL_XBOX360-STRANGE DL 7168.0MB | 70F bad.dump_get.repack
2014-11-19 18:14:14 XBOX360 Rabbids.Invasion.XBOX360-COMPLEX DL 6151.3MB | 65F
2014-11-17 20:38:17 XBOX360 Far.Cry.4.XBOX360-COMPLEX DL
2014-11-17 14:59:20 XBOX360 Bioshock.Infinite.The.Complete.Edition.XboX360.RF-iND DL
2014-11-15 07:36:23 XBOX360 MotoGP_14_USA_XBOX360-PROTOCOL DL 10137.6MB | 74F
2014-11-15 04:38:09 XBOX360 Adventure.Time.The.Secret.of.the.Nameless.Kingdom.XBOX360-COMPLEX DL 9011.2MB | 73F
2014-11-15 03:24:03 XBOX360 Escape.Dead.Island.XBOX360-COMPLEX DL 10342.4MB | 73F
2014-11-15 01:07:36 XBOX360 Dragon.Age.Inquisition.XBOX360-COMPLEX DL
2014-11-14 06:59:37 XBOX360 Middle.Earth.Shadow.Of.Mordor.XBOX360-iMARS DL
2014-11-14 02:42:32 XBOX360 Far.Cry.4.NTSC.XBOX360-iMARS DL 12697.6MB | 82F
2014-11-12 19:39:36 XBOX360 Digimon.All-Star.Rumble.PAL.XBOX360-COMPLEX DL 7006.0MB | 76F
2014-11-12 19:03:34 XBOX360 Pro.Evolution.Soccer.2015.PAL.MULTi3.XBOX360-UNLiMiTED DL 14848.0MB | 73F
2014-11-12 17:54:53 XBOX360 Pro.Evolution.Soccer.2015.PAL.XBOX360-COMPLEX DL 7475.2MB | 73F
2014-11-10 12:09:56 XBOX360 Trials.Fusion.Welcome.To.The.Abyss.DLC.XBOX360-LiGHTFORCE DL 130.0MB | 2F
2014-11-10 11:05:33 XBOX360 Need_For_Speed_ProStreet_PAL_XBOX360-SPARE2 DL
2014-11-10 00:18:51 XBOX360 CALL.OF.DUTY.ADVANCED.WARFARE.UNCUT.GERMAN.PAL.XBOX360-SHiTONLYGERMAN DL 16299.3MB | 172F
2014-11-08 17:19:33 XBOX360 LEGO.Batman.3.Beyond.Gotham.XBOX360-COMPLEX DL 16384.0MB | 82F
2014-11-07 06:13:51 XBOX360 Assassins.Creed.Rogue.XBOX360-iMARS DL 8601.6MB | 83F
2014-11-07 02:41:01 XBOX360 Digimon_All_Star_Rumble_USA_XBOX360-PROTOCOL DL 7577.6MB | 74F
2014-11-07 02:00:51 XBOX360 Pro.Evolution.Soccer.2015.NTSC.XBOX360-COMPLEX DL 8294.4MB | 81F
2014-11-05 01:59:05 XBOX360 The.Wolf.Among.Us.XBOX360-iMARS DL 6699.0MB | 71F
2014-11-03 20:00:56 XBOX360 Call.Of.Duty.Advanced.Warfare.FRENCH.XBOX360-iNSOMNi DL
2014-11-03 16:46:30 XBOX360 Tropico.5.XBOX360-COMPLEX DL 16179.2MB | 72F
2014-10-31 07:13:08 XBOX360 Costume.Quest.2.XBLA.XBOX360-LiGHTFORCE DL
2014-10-30 02:05:08 XBOX360 Call.Of.Duty.Advanced.Warfare.XBOX360-iMARS DL 8161.0MB | 86F
2014-10-29 01:29:35 XBOX360 WWE.2K15.XBOX360-iMARS DL 9011.2MB | 88F
2014-10-25 01:00:37 XBOX360 Teenage.Mutant.Ninja.Turtles.Danger.of.the.Ooze.XBOX360-iMARS DL 7274.2MB | 77F
2014-10-24 10:40:05 XBOX360 Falling.Skies.PAL.XBOX360-COMPLEX DL 5637.0MB | 62F
2014-10-23 21:41:34 XBOX360 The.Walking.Dead.Season.2.XBOX360-COMPLEX DL 7475.2MB | 73F
2014-10-22 03:20:02 XBOX360 The.Voice.NTSC.XBOX360-PROTON DL 21708.8MB | 85F
2014-10-21 17:59:19 XBOX360 Just.Dance.2015.PAL.XBOX360-COMPLEX DL 7963.0MB | 86F
2014-10-21 15:37:10 XBOX360 Disney.Fantasia.Music.Evolved.XBOX360-COMPLEX DL 13414.4MB | 72F
2014-10-21 03:14:43 XBOX360 Just.Dance.2015.NTSC.XBOX360-PROTON DL 8908.8MB | 87F
2014-10-17 08:54:46 XBOX360 Murdered_Tamashii_no_Yobu_Koe_JPN_XBOX360-HR DL 7270.4MB | 71F
2014-10-14 09:30:31 XBOX360 MX.vs.ATV.Supercross.XBOX360-COMPLEX DL 6945.0MB | 75F
 ░                                                                      ░
 ▒                                                                      ▒
 ▓     Server Time:                               info@orlydb.com       ▓
 █░    2014-12-27 13:41:17                        Hide/Show header     ░█
 █▄                                                                    ▄█
 ▀█▄                            ░▄▄▄▄▄▄▄▄░                            ▄█▀
  ▀█▄▒                 ░▄▄█████████▀▀▀▀█████████▄▄░                 ▒▄█▀
   ▀██▄░░     ░▄▄██████████▀▀░              ░▀▀██████████▄▄░     ░░▄██▀
    ░▀███████████▀▀                                    ▀▀███████████▀░
        ▀▀▀░    █   ▄▄▄▄  ▄▄▄▄  ▄▄  ▄▄   ▄ ▄▄▄▄  ▄▄▄▄    █    ░▀▀▀
                ▓   ██  █ ██ ██ ██   █▄ ▄█ ██  █ ██ ██   ▓
                ▒   ▓█  █ ▓█▄██ ▓█    ▓██  ▓█  █ ▓█▄█▀   ▒
                ▓   ▓████ ▓█ █▄ ▓█▄▄▄ ▓██  ▓███▀ ▓█▄██   ▓
                █▄▄▄▄▄▄▄▄▄▄▄▄▄▄▄▄▄▄▄▄▄▄▄▄▄▄▄▄▄▄▄▄▄▄▄▄▄▄▄▄█